TimeEST,TemperatureF,Dew PointF,Humidity,Sea Level PressureIn,VisibilityMPH,Wind Direction,Wind SpeedMPH,Gust SpeedMPH,PrecipitationIn,Events,Conditions,WindDirDegrees,DateUTC
12:15 AM,56.5,54.9,94,29.98,10.0,SSW,3.5,-,N/A,,Clear,200,2013-01-17 05:15:00
12:35 AM,56.1,55.0,96,29.97,10.0,Calm,Calm,-,N/A,,Clear,0,2013-01-17 05:35:00
12:55 AM,53.8,52.7,96,29.97,7.0,Calm,Calm,-,N/A,,Clear,0,2013-01-17 05:55:00
1:15 AM,54.5,53.8,97,29.97,7.0,Calm,Calm,-,N/A,,Clear,0,2013-01-17 06:15:00
1:35 AM,53.6,52.9,97,29.97,7.0,Calm,Calm,-,N/A,,Clear,0,2013-01-17 06:35:00
1:55 AM,53.8,53.1,97,29.97,7.0,Calm,Calm,-,N/A,,Clear,0,2013-01-17 06:55:00
2:15 AM,53.1,52.3,97,29.97,7.0,Calm,Calm,-,N/A,,Clear,0,2013-01-17 07:15:00
2:35 AM,53.1,52.5,98,29.97,7.0,Calm,Calm,-,N/A,,Clear,0,2013-01-17 07:35:00
3:15 AM,53.1,52.2,97,29.96,7.0,South,3.5,-,N/A,,Clear,190,2013-01-17 08:15:00
3:35 AM,52.5,51.6,97,29.95,7.0,South,3.5,-,N/A,,Clear,190,2013-01-17 08:35:00
3:55 AM,51.8,50.9,97,29.95,7.0,SSW,4.6,-,N/A,,Clear,200,2013-01-17 08:55:00
4:35 AM,50.9,50.4,98,29.95,7.0,SSW,3.5,-,N/A,,Clear,200,2013-01-17 09:35:00
4:55 AM,50.4,49.6,97,29.94,7.0,SSW,3.5,-,N/A,,Clear,210,2013-01-17 09:55:00
5:15 AM,49.6,49.1,98,29.94,5.0,SSW,3.5,-,N/A,,Clear,200,2013-01-17 10:15:00
5:35 AM,49.1,48.6,98,29.94,7.0,SSW,3.5,-,N/A,,Clear,210,2013-01-17 10:35:00
5:55 AM,47.8,47.3,98,29.95,5.0,SSW,3.5,-,N/A,,Clear,200,2013-01-17 10:55:00
6:15 AM,46.4,46.0,99,29.95,4.0,South,3.5,-,N/A,,Clear,190,2013-01-17 11:15:00
6:35 AM,45.5,45.1,99,29.95,7.0,SSW,4.6,-,N/A,,Clear,200,2013-01-17 11:35:00
6:55 AM,43.0,42.6,99,29.96,7.0,SSW,3.5,-,N/A,,Clear,200,2013-01-17 11:55:00
7:15 AM,40.1,39.9,99,29.96,7.0,SSW,3.5,-,N/A,,Clear,210,2013-01-17 12:15:00
7:35 AM,39.4,39.0,99,29.97,4.0,Calm,Calm,-,N/A,,Clear,0,2013-01-17 12:35:00
7:55 AM,38.8,38.5,99,29.97,3.0,Calm,Calm,-,N/A,,Mist,0,2013-01-17 12:55:00
8:15 AM,39.0,38.7,99,29.98,5.0,Calm,Calm,-,N/A,,Clear,0,2013-01-17 13:15:00
8:35 AM,39.4,39.2,99,29.98,7.0,SSW,3.5,-,N/A,,Clear,200,2013-01-17 13:35:00
8:55 AM,40.1,39.4,97,29.98,10.0,SSW,4.6,-,N/A,,Clear,200,2013-01-17 13:55:00
9:15 AM,40.5,39.2,95,29.98,10.0,SSW,3.5,-,N/A,,Scattered Clouds,200,2013-01-17 14:15:00
9:35 AM,41.2,39.2,93,29.98,10.0,South,3.5,-,N/A,,Scattered Clouds,190,2013-01-17 14:35:00
9:55 AM,42.6,39.4,88,29.98,10.0,South,4.6,-,N/A,,Clear,190,2013-01-17 14:55:00
10:15 AM,43.7,39.2,84,29.97,10.0,SSW,4.6,-,N/A,,Scattered Clouds,200,2013-01-17 15:15:00
10:35 AM,45.5,39.2,79,29.96,10.0,South,5.8,-,N/A,,Mostly Cloudy,190,2013-01-17 15:35:00
10:55 AM,54.3,46.9,76,29.95,10.0,South,4.6,-,N/A,,Scattered Clouds,190,2013-01-17 15:55:00
11:15 AM,62.2,53.6,73,29.93,7.0,SSE,6.9,-,N/A,,Clear,150,2013-01-17 16:15:00
11:35 AM,63.3,52.7,68,29.92,10.0,South,5.8,-,N/A,,Clear,190,2013-01-17 16:35:00
11:55 AM,66.6,53.1,62,29.90,10.0,SSW,3.5,-,N/A,,Clear,210,2013-01-17 16:55:00
12:15 PM,69.6,53.8,57,29.88,10.0,South,8.1,-,N/A,,Scattered Clouds,180,2013-01-17 17:15:00
12:35 PM,71.8,54.3,54,29.87,10.0,South,8.1,-,N/A,,Scattered Clouds,170,2013-01-17 17:35:00
12:55 PM,73.9,54.9,51,29.85,10.0,South,10.4,-,N/A,,Scattered Clouds,180,2013-01-17 17:55:00
1:15 PM,74.3,55.2,51,29.84,10.0,SE,8.1,-,N/A,,Scattered Clouds,140,2013-01-17 18:15:00
1:35 PM,75.2,55.0,49,29.82,10.0,SSE,11.5,-,N/A,,Scattered Clouds,160,2013-01-17 18:35:00
1:55 PM,76.1,55.2,48,29.81,10.0,South,16.1,-,N/A,,Scattered Clouds,170,2013-01-17 18:55:00
2:15 PM,76.5,55.8,49,29.81,10.0,SSE,12.7,18.4,N/A,,Scattered Clouds,160,2013-01-17 19:15:00
2:35 PM,75.7,57.0,52,29.80,10.0,SSE,19.6,26.5,N/A,,Scattered Clouds,160,2013-01-17 19:35:00
2:55 PM,75.4,58.8,56,29.80,10.0,SSE,10.4,20.7,N/A,,Scattered Clouds,150,2013-01-17 19:55:00
3:15 PM,74.3,60.6,62,29.79,10.0,SSE,10.4,19.6,N/A,,Mostly Cloudy,160,2013-01-17 20:15:00
3:35 PM,73.4,61.5,66,29.78,10.0,SSE,9.2,24.2,N/A,,Scattered Clouds,160,2013-01-17 20:35:00
3:55 PM,73.0,62.2,69,29.76,10.0,South,11.5,21.9,N/A,,Scattered Clouds,170,2013-01-17 20:55:00
4:15 PM,72.1,62.6,72,29.76,10.0,South,12.7,23.0,N/A,,Scattered Clouds,170,2013-01-17 21:15:00
4:35 PM,71.8,63.5,75,29.77,10.0,South,11.5,18.4,N/A,,Scattered Clouds,190,2013-01-17 21:35:00
4:55 PM,71.6,61.3,70,29.77,10.0,South,18.4,25.3,N/A,,Scattered Clouds,180,2013-01-17 21:55:00
5:55 PM,70.0,61.7,75,29.75,10.0,SSE,10.4,19.6,N/A,,Clear,160,2013-01-17 22:55:00
6:35 PM,68.0,63.7,86,29.73,7.0,SE,5.8,-,0.01,Rain,Rain,130,2013-01-17 23:35:00
8:55 PM,50.4,48.0,92,29.87,10.0,SW,8.1,17.3,0.01,,Overcast,230,2013-01-18 01:55:00
9:15 PM,49.1,47.7,95,29.88,3.0,SW,5.8,-,N/A,,Heavy Drizzle,230,2013-01-18 02:15:00
9:55 PM,44.1,42.6,95,29.91,5.0,North,6.9,20.7,0.01,Rain,Rain,10,2013-01-18 02:55:00
10:15 PM,42.1,40.8,95,29.95,7.0,North,10.4,23.0,N/A,,Light Drizzle,10,2013-01-18 03:15:00
10:35 PM,41.4,39.7,94,29.96,7.0,NNE,8.1,20.7,N/A,,Drizzle,20,2013-01-18 03:35:00
10:55 PM,41.0,39.2,93,29.98,10.0,North,5.8,-,N/A,,Mostly Cloudy,350,2013-01-18 03:55:00